Epoch 2001 June 20.0 TT = JDT 2452080.5
T 2001 July 7.46166 TT MPCW
q 0.6054930 (2000.0) P Q
n 0.23457688 Peri. 217.93820 +0.82627391 -0.56312337
a 2.6038297 Node 176.26462 +0.55278962 +0.80633482
e 0.7674606 Incl. 11.31875 +0.10814368 +0.18087629
P 4.20
From 1096 observations 1989 Mar. 7-2015 Mar. 24, mean residual 0".4.
Magnitudes Graph
H = 16.0 G = 0.15 [ ,-70] ( - 2001 Apr. 28)
m1 = 15.8 + 5 log d + 20.0 log r [-70, 55] (2001 Apr. 28 - 2001 Aug. 31)
H = 16.0 G = 0.15 [ 55, ] (2001 Aug. 31 - )
* Green curve is: H = 16.0 G = 0.15